Time,TemperatureF,DewpointF,PressureIn,WindDirection,WindDirectionDegrees,WindSpeedMPH,WindSpeedGustMPH,Humidity,HourlyPrecipIn,Conditions,Clouds,dailyrainin,SoftwareType,DateUTC
2013-12-24 00:03:00,57.6,54.0,30.12,South,176,0.0,-999.0,86,-99.99,,,0.00,weatherlink.com 1.10,2013-12-24 05:03:00,
2013-12-24 00:18:00,57.5,53.0,30.12,South,174,0.0,-999.0,86,-99.99,,,0.00,weatherlink.com 1.10,2013-12-24 05:18:00,
2013-12-24 00:33:00,57.5,53.0,30.11,South,172,0.0,-999.0,86,-99.99,,,0.00,weatherlink.com 1.10,2013-12-24 05:33:00,
2013-12-24 00:48:00,57.3,53.0,30.11,South,171,0.0,-999.0,86,-99.99,,,0.00,weatherlink.com 1.10,2013-12-24 05:48:00,
2013-12-24 01:03:00,57.2,53.0,30.11,South,171,0.0,-999.0,86,-99.99,,,0.00,weatherlink.com 1.10,2013-12-24 06:03:00,
2013-12-24 01:19:00,57.0,53.0,30.10,South,171,0.0,-999.0,86,-99.99,,,0.00,weatherlink.com 1.10,2013-12-24 06:19:00,
2013-12-24 01:33:00,56.9,53.0,30.12,South,171,0.0,-999.0,86,-99.99,,,0.01,weatherlink.com 1.10,2013-12-24 06:33:00,
2013-12-24 01:48:00,57.0,53.0,30.11,South,184,0.0,-999.0,87,-99.99,,,0.04,weatherlink.com 1.10,2013-12-24 06:48:00,
2013-12-24 02:03:00,56.5,52.0,30.11,SSE,162,0.0,-999.0,86,-99.99,,,0.05,weatherlink.com 1.10,2013-12-24 07:03:00,
2013-12-24 02:18:00,55.3,51.0,30.11,South,187,0.0,-999.0,86,-99.99,,,0.06,weatherlink.com 1.10,2013-12-24 07:18:00,
2013-12-24 02:33:00,55.1,51.0,30.11,South,185,0.0,-999.0,86,-99.99,,,0.06,weatherlink.com 1.10,2013-12-24 07:33:00,
2013-12-24 02:48:00,55.1,51.0,30.11,South,176,0.0,-999.0,87,-99.99,,,0.06,weatherlink.com 1.10,2013-12-24 07:48:00,
2013-12-24 03:03:00,55.1,51.0,30.12,SSE,160,0.0,-999.0,86,-99.99,,,0.06,weatherlink.com 1.10,2013-12-24 08:03:00,
2013-12-24 03:18:00,54.4,50.0,30.12,SE,137,1.0,-999.0,86,-99.99,,,0.06,weatherlink.com 1.10,2013-12-24 08:18:00,
2013-12-24 03:33:00,53.8,50.0,30.13,ESE,117,3.0,-999.0,86,-99.99,,,0.06,weatherlink.com 1.10,2013-12-24 08:33:00,
2013-12-24 03:48:00,53.5,50.0,30.13,South,170,3.0,-999.0,86,-99.99,,,0.06,weatherlink.com 1.10,2013-12-24 08:48:00,
2013-12-24 04:03:00,53.1,49.0,30.13,SSE,155,1.0,-999.0,86,-99.99,,,0.06,weatherlink.com 1.10,2013-12-24 09:03:00,
2013-12-24 04:18:00,52.6,49.0,30.14,SE,141,0.0,-999.0,86,-99.99,,,0.06,weatherlink.com 1.10,2013-12-24 09:18:00,
2013-12-24 04:33:00,51.7,47.0,30.14,SW,227,4.0,-999.0,85,-99.99,,,0.06,weatherlink.com 1.10,2013-12-24 09:33:00,
2013-12-24 04:48:00,51.0,47.0,30.14,South,184,1.0,-999.0,85,-99.99,,,0.06,weatherlink.com 1.10,2013-12-24 09:48:00,
2013-12-24 05:03:00,50.2,46.0,30.15,SSE,163,3.0,-999.0,84,-99.99,,,0.06,weatherlink.com 1.10,2013-12-24 10:03:00,
2013-12-24 05:18:00,49.2,45.0,30.14,SSE,152,0.0,-999.0,84,-99.99,,,0.06,weatherlink.com 1.10,2013-12-24 10:18:00,
2013-12-24 05:33:00,48.8,44.0,30.16,SE,145,2.0,-999.0,84,-99.99,,,0.06,weatherlink.com 1.10,2013-12-24 10:33:00,
2013-12-24 05:48:00,48.3,43.0,30.17,SSE,166,6.0,-999.0,83,-99.99,,,0.06,weatherlink.com 1.10,2013-12-24 10:48:00,
2013-12-24 06:03:00,47.6,43.0,30.18,SSE,160,0.0,-999.0,83,-99.99,,,0.06,weatherlink.com 1.10,2013-12-24 11:03:00,
2013-12-24 06:18:00,46.7,42.0,30.19,SSE,149,2.0,-999.0,82,-99.99,,,0.06,weatherlink.com 1.10,2013-12-24 11:18:00,
2013-12-24 06:34:00,45.8,41.0,30.20,SSE,153,1.0,-999.0,82,-99.99,,,0.06,weatherlink.com 1.10,2013-12-24 11:34:00,
2013-12-24 06:49:00,45.7,41.0,30.20,ESE,120,0.0,-999.0,82,-99.99,,,0.06,weatherlink.com 1.10,2013-12-24 11:49:00,
2013-12-24 07:04:00,45.4,40.0,30.21,SW,215,3.0,-999.0,82,-99.99,,,0.06,weatherlink.com 1.10,2013-12-24 12:04:00,
2013-12-24 07:19:00,45.1,40.0,30.22,South,170,0.0,-999.0,82,-99.99,,,0.06,weatherlink.com 1.10,2013-12-24 12:19:00,
2013-12-24 07:34:00,44.6,39.0,30.23,SE,139,4.0,-999.0,81,-99.99,,,0.06,weatherlink.com 1.10,2013-12-24 12:34:00,
2013-12-24 07:49:00,44.3,39.0,30.24,SW,219,0.0,-999.0,81,-99.99,,,0.06,weatherlink.com 1.10,2013-12-24 12:49:00,
2013-12-24 08:04:00,44.1,39.0,30.24,South,184,0.0,-999.0,81,-99.99,,,0.06,weatherlink.com 1.10,2013-12-24 13:04:00,
2013-12-24 08:19:00,44.1,39.0,30.25,SSE,166,2.0,-999.0,81,-99.99,,,0.06,weatherlink.com 1.10,2013-12-24 13:19:00,
2013-12-24 08:34:00,44.2,38.0,30.25,South,182,1.0,-999.0,80,-99.99,,,0.06,weatherlink.com 1.10,2013-12-24 13:34:00,
2013-12-24 08:49:00,44.2,38.0,30.25,SE,129,0.0,-999.0,80,-99.99,,,0.06,weatherlink.com 1.10,2013-12-24 13:49:00,
2013-12-24 09:04:00,44.6,39.0,30.25,SE,124,1.0,-999.0,80,-99.99,,,0.06,weatherlink.com 1.10,2013-12-24 14:04:00,
2013-12-24 09:19:00,45.7,40.0,30.26,South,186,1.0,-999.0,81,-99.99,,,0.06,weatherlink.com 1.10,2013-12-24 14:19:00,
2013-12-24 09:34:00,47.1,41.0,30.26,SE,139,1.0,-999.0,80,-99.99,,,0.06,weatherlink.com 1.10,2013-12-24 14:34:00,
2013-12-24 09:49:00,47.6,41.0,30.27,SE,136,0.0,-999.0,78,-99.99,,,0.06,weatherlink.com 1.10,2013-12-24 14:49:00,
2013-12-24 10:04:00,48.0,41.0,30.27,South,184,0.0,-999.0,77,-99.99,,,0.06,weatherlink.com 1.10,2013-12-24 15:04:00,
2013-12-24 10:19:00,47.6,41.0,30.28,East,98,0.0,-999.0,77,-99.99,,,0.06,weatherlink.com 1.10,2013-12-24 15:19:00,
2013-12-24 10:34:00,47.4,41.0,30.28,East,98,2.0,-999.0,77,-99.99,,,0.06,weatherlink.com 1.10,2013-12-24 15:34:00,
2013-12-24 10:49:00,48.2,41.0,30.26,SSE,164,0.0,-999.0,77,-99.99,,,0.06,weatherlink.com 1.10,2013-12-24 15:49:00,
2013-12-24 11:04:00,49.6,42.0,30.26,SW,224,0.0,-999.0,75,-99.99,,,0.06,weatherlink.com 1.10,2013-12-24 16:04:00,
2013-12-24 11:19:00,50.8,42.0,30.26,SSE,164,2.0,-999.0,73,-99.99,,,0.06,weatherlink.com 1.10,2013-12-24 16:19:00,
2013-12-24 11:34:00,51.7,43.0,30.26,SW,232,4.0,-999.0,72,-99.99,,,0.06,weatherlink.com 1.10,2013-12-24 16:34:00,
2013-12-24 11:49:00,52.5,43.0,30.25,SSE,151,0.0,-999.0,70,-99.99,,,0.07,weatherlink.com 1.10,2013-12-24 16:49:00,
2013-12-24 12:04:00,53.3,43.0,30.25,South,184,1.0,-999.0,68,-99.99,,,0.07,weatherlink.com 1.10,2013-12-24 17:04:00,
2013-12-24 12:19:00,54.1,43.0,30.24,SSE,166,0.0,-999.0,66,-99.99,,,0.07,weatherlink.com 1.10,2013-12-24 17:19:00,
2013-12-24 12:34:00,55.1,44.0,30.23,ESE,106,2.0,-999.0,66,-99.99,,,0.07,weatherlink.com 1.10,2013-12-24 17:34:00,
2013-12-24 12:49:00,57.0,43.0,30.23,WSW,247,4.0,-999.0,61,-99.99,,,0.07,weatherlink.com 1.10,2013-12-24 17:49:00,
2013-12-24 13:04:00,58.7,45.0,30.23,SE,133,0.0,-999.0,60,-99.99,,,0.07,weatherlink.com 1.10,2013-12-24 18:04:00,
2013-12-24 13:19:00,59.9,42.0,30.23,SW,214,2.0,-999.0,52,-99.99,,,0.07,weatherlink.com 1.10,2013-12-24 18:19:00,
2013-12-24 13:34:00,60.9,41.0,30.22,SSE,166,0.0,-999.0,48,-99.99,,,0.07,weatherlink.com 1.10,2013-12-24 18:34:00,
2013-12-24 13:49:00,61.0,39.0,30.22,SSE,165,1.0,-999.0,44,-99.99,,,0.07,weatherlink.com 1.10,2013-12-24 18:49:00,
2013-12-24 14:04:00,62.0,37.0,30.22,SW,235,0.0,-999.0,40,-99.99,,,0.07,weatherlink.com 1.10,2013-12-24 19:04:00,
2013-12-24 14:19:00,62.6,37.0,30.22,East,89,1.0,-999.0,39,-99.99,,,0.07,weatherlink.com 1.10,2013-12-24 19:19:00,
2013-12-24 14:34:00,63.4,36.0,30.22,SSE,147,0.0,-999.0,36,-99.99,,,0.07,weatherlink.com 1.10,2013-12-24 19:34:00,
2013-12-24 14:49:00,63.9,35.0,30.22,SW,227,0.0,-999.0,34,-99.99,,,0.07,weatherlink.com 1.10,2013-12-24 19:49:00,
2013-12-24 15:04:00,64.5,34.0,30.22,South,180,1.0,-999.0,32,-99.99,,,0.07,weatherlink.com 1.10,2013-12-24 20:04:00,
2013-12-24 15:19:00,63.9,31.0,30.22,South,177,0.0,-999.0,29,-99.99,,,0.07,weatherlink.com 1.10,2013-12-24 20:19:00,
2013-12-24 15:34:00,63.7,31.0,30.23,WNW,295,0.0,-999.0,29,-99.99,,,0.07,weatherlink.com 1.10,2013-12-24 20:34:00,
2013-12-24 15:49:00,63.7,31.0,30.23,SSE,161,0.0,-999.0,29,-99.99,,,0.07,weatherlink.com 1.10,2013-12-24 20:49:00,
2013-12-24 16:04:00,63.1,30.0,30.23,South,191,0.0,-999.0,29,-99.99,,,0.07,weatherlink.com 1.10,2013-12-24 21:04:00,
2013-12-24 16:19:00,60.5,29.0,30.24,South,179,0.0,-999.0,30,-99.99,,,0.07,weatherlink.com 1.10,2013-12-24 21:19:00,
2013-12-24 16:34:00,58.7,29.0,30.25,SSW,192,0.0,-999.0,32,-99.99,,,0.07,weatherlink.com 1.10,2013-12-24 21:34:00,
2013-12-24 16:49:00,57.3,26.0,30.25,SW,228,0.0,-999.0,30,-99.99,,,0.07,weatherlink.com 1.10,2013-12-24 21:49:00,
2013-12-24 17:04:00,56.2,24.0,30.25,East,81,0.0,-999.0,29,-99.99,,,0.07,weatherlink.com 1.10,2013-12-24 22:04:00,
2013-12-24 17:19:00,55.1,25.0,30.26,SSW,194,0.0,-999.0,31,-99.99,,,0.07,weatherlink.com 1.10,2013-12-24 22:19:00,
2013-12-24 17:35:00,54.2,25.0,30.27,South,189,0.0,-999.0,33,-99.99,,,0.07,weatherlink.com 1.10,2013-12-24 22:35:00,
2013-12-24 17:50:00,53.2,27.0,30.27,South,178,0.0,-999.0,36,-99.99,,,0.07,weatherlink.com 1.10,2013-12-24 22:50:00,
2013-12-24 18:05:00,52.3,28.0,30.28,South,178,0.0,-999.0,39,-99.99,,,0.07,weatherlink.com 1.10,2013-12-24 23:05:00,
2013-12-24 18:20:00,51.7,28.0,30.28,South,178,0.0,-999.0,41,-99.99,,,0.07,weatherlink.com 1.10,2013-12-24 23:20:00,
2013-12-24 18:35:00,51.0,28.0,30.29,South,172,0.0,-999.0,41,-99.99,,,0.07,weatherlink.com 1.10,2013-12-24 23:35:00,
2013-12-24 18:50:00,50.5,28.0,30.29,SE,139,0.0,-999.0,42,-99.99,,,0.07,weatherlink.com 1.10,2013-12-24 23:50:00,
2013-12-24 19:05:00,49.9,28.0,30.29,SE,140,0.0,-999.0,43,-99.99,,,0.07,weatherlink.com 1.10,2013-12-25 00:05:00,
2013-12-24 19:20:00,49.4,28.0,30.31,SE,141,0.0,-999.0,44,-99.99,,,0.07,weatherlink.com 1.10,2013-12-25 00:20:00,
2013-12-24 19:35:00,48.8,28.0,30.31,South,169,0.0,-999.0,44,-99.99,,,0.07,weatherlink.com 1.10,2013-12-25 00:35:00,
2013-12-24 19:50:00,48.6,25.0,30.31,SSW,193,0.0,-999.0,40,-99.99,,,0.07,weatherlink.com 1.10,2013-12-25 00:50:00,
2013-12-24 20:05:00,48.3,26.0,30.31,WSW,249,0.0,-999.0,42,-99.99,,,0.07,weatherlink.com 1.10,2013-12-25 01:05:00,
2013-12-24 20:20:00,47.9,27.0,30.31,SSE,155,0.0,-999.0,44,-99.99,,,0.07,weatherlink.com 1.10,2013-12-25 01:20:00,
2013-12-24 20:35:00,47.6,28.0,30.31,SSE,168,0.0,-999.0,46,-99.99,,,0.07,weatherlink.com 1.10,2013-12-25 01:35:00,
2013-12-24 20:50:00,47.0,27.0,30.31,SSW,197,1.0,-999.0,46,-99.99,,,0.07,weatherlink.com 1.10,2013-12-25 01:50:00,
2013-12-24 21:05:00,46.8,28.0,30.32,SSE,158,0.0,-999.0,48,-99.99,,,0.07,weatherlink.com 1.10,2013-12-25 02:05:00,
2013-12-24 21:20:00,46.4,28.0,30.31,SSW,199,4.0,-999.0,49,-99.99,,,0.07,weatherlink.com 1.10,2013-12-25 02:20:00,
2013-12-24 21:35:00,46.2,28.0,30.31,WSW,251,0.0,-999.0,49,-99.99,,,0.07,weatherlink.com 1.10,2013-12-25 02:35:00,
2013-12-24 21:50:00,46.0,28.0,30.32,SW,228,0.0,-999.0,49,-99.99,,,0.07,weatherlink.com 1.10,2013-12-25 02:50:00,
2013-12-24 22:05:00,45.7,28.0,30.32,SW,227,0.0,-999.0,51,-99.99,,,0.07,weatherlink.com 1.10,2013-12-25 03:05:00,
2013-12-24 22:20:00,45.5,29.0,30.32,WSW,243,0.0,-999.0,52,-99.99,,,0.07,weatherlink.com 1.10,2013-12-25 03:20:00,
2013-12-24 22:35:00,45.5,29.0,30.33,WSW,237,1.0,-999.0,52,-99.99,,,0.07,weatherlink.com 1.10,2013-12-25 03:35:00,
2013-12-24 22:50:00,45.5,29.0,30.32,SW,231,0.0,-999.0,52,-99.99,,,0.07,weatherlink.com 1.10,2013-12-25 03:50:00,
2013-12-24 23:05:00,45.4,29.0,30.33,SW,232,0.0,-999.0,53,-99.99,,,0.00,weatherlink.com 1.10,2013-12-25 04:05:00,
2013-12-24 23:20:00,45.4,29.0,30.33,WSW,251,0.0,-999.0,53,-99.99,,,0.00,weatherlink.com 1.10,2013-12-25 04:20:00,
2013-12-24 23:35:00,45.1,29.0,30.33,SSE,154,0.0,-999.0,53,-99.99,,,0.00,weatherlink.com 1.10,2013-12-25 04:35:00,
2013-12-24 23:50:00,44.8,29.0,30.32,West,264,0.0,-999.0,55,-99.99,,,0.00,weatherlink.com 1.10,2013-12-25 04:50:00,